Regional Weather Roundup
Issued by NWS Newport/Morehead, NC

Current Version | Previous Version | Graphics & Text | Print | Product List | Glossary Off
Versions: 1 2 3 4 5 6 7 8 9 10 11 12 13 14 15 16 17 18 19 20 21 22 23 24 25 26 27 28 29 30 31 32 33 34 35 36 37 38 39 40 41 42 43 44 45 46 47 48 49 50

000
ASUS42 KMHX 212210
RWRMHX
WEATHER ROUNDUP FOR EASTERN NORTH CAROLINA
NATIONAL WEATHER SERVICE NEWPORT/MOREHEAD CITY NC
600 PM EDT TUE OCT 21 2014

NOTE: "FAIR" INDICATES FEW OR NO CLOUDS BELOW 12,000 FEET
WITH NO SIGNIFICANT WEATHER AND/OR OBSTRUCTIONS TO VISIBILITY

NCZ015>017-031-032-045>047-102-103-212300-
NORTH COAST

CITY           SKY/WX    TMP DP  RH WIND       PRES   REMARKS
EDENTON        PTCLDY    71  54  55 NW3       29.83R
ELIZABETH CITY PTCLDY    71  52  50 SW6       29.82R
KITTY HAWK     MOCLDY    69  58  67 CALM      29.82R
MANTEO         MOCLDY    70  57  63 SW9       29.83R

$$

NCZ045>047-081-094-103-104-212300-
CENTRAL COAST

CITY           SKY/WX    TMP DP  RH WIND       PRES   REMARKS
FRISCO         PTCLDY    70  59  68 SW12      29.84S
SWANQUARTER      N/A     70 N/A N/A S6        29.79S

$$

NCZ095-097-098-100-101-212300-
SOUTHERN COAST

CITY           SKY/WX    TMP DP  RH WIND       PRES   REMARKS
BEAUFORT       CLEAR     71  60  68 SW12      29.84S
CEDAR ISLAND     N/A     73 N/A N/A S8G14     29.88
JACKSONVILLE   PTCLDY    70  60  70 S6        29.83S
PINEY ISLAND   CLEAR     73  57  57 SW8       29.84R
WILMINGTON     PTCLDY    72  55  55 SW7       29.83S


$$

NCZ011>013-027>030-043-044-078>080-089-090>093-098-212300-
COASTAL PLAIN

CITY           SKY/WX    TMP DP  RH WIND       PRES   REMARKS
AHOSKIE        PTCLDY    64  55  75 CALM      29.84R
CLINTON        PTCLDY    72  53  50 CALM      29.84S
ELIZABETHTOWN  CLEAR     74  49  42 CALM      29.84S
GOLDSBORO      PTCLDY    72  54  53 SW1       29.82S
GREENVILLE     CLEAR     70  54  56 CALM      29.86S
HAVELOCK       CLEAR     70  58  65 S6        29.85R
KENANSVILLE    CLEAR     68  54  62 CALM      29.85R
KINSTON        CLEAR     70  54  56 CALM      29.84S
NEW BERN       MOCLDY    73  58  59 S6        29.84S
RICHLANDS      PTCLDY    73  50  43 SW5       29.84S
ROCKY MOUNT    CLOUDY    69  52  54 W3        29.84R
WASHINGTON     CLEAR     70  52  52 CALM      29.83S
WHITEVILLE     CLEAR     73  50  45 CALM      29.84S

$$

AMZ130-135-150-152-154-156-158-170-250-252-270-ANZ085-086-088-633-658-670-212300-
MARINE OBSERVATIONS

STATION/POSITION TIME  TEMP    WIND        PRES    WAVE   SWELL
                       AIR SEA DIR/SP/G            HT/PER HT/PER
                 (UTC) (F)     (DEG/KT/KT) (MB)    (FT/S) (FT/S)
CHESAPEAKE LIGHT 2100   67      20/  4/  4 1010.3
64 E VA BEACH    2200   69 69  210/ 12/ 14 1009.4    2/ 9   2/ 9
DUCK             2200   71 69  170/  3/  5 1009.1
2 E DUCK         2200                        N/A     2/11   2/11
10 NE DUCK       2200      71                N/A     2/10   2/11
OREGON INLET     2200   69 68  190/ 15/ 19 1010.1
13E OREGON INLT  2200      74                N/A     3/10   2/11
HATTERAS CG      2200   72 72  220/  8/ 12 1010.9
DIAMOND BUOY     2200   73     220/ 14/ 17 1010.5    3/ 9   2/ 9
17 S OCRACOKE    2100          VRB 14/ 16  1010.4
CAPE LOOKOUT     2100   72     220/  7/  9 1010.6
BEAUFORT LAB     2200   71 71  220/  7/ 10 1009.9
30 SE NEW RIVER  2200   73 76  230/ 12/ 14 1010.3    2/ 9   2/ 9
5 SE WRIGHTSVLE  2200   69 73  220/ 14/ 16   N/A
225 S CAPE HAT   2127   77 80  170/ 10/ 12 1012.1    4/10   3/10
41 SE CHARLESTON 2200   74 79  250/ 12/ 14 1011.4    2/ 9   2/ 9

$$



USA.gov is the U.S. government's official web portal to all federal, state and local government web resources and services.